Home > Weather > Pirassununga > Past weeks

Flag for Brazil Weather for the Past 2 Weeks in Pirassununga, São Paulo, Brazil

Now
75 °F

Scattered clouds.


Feels Like: 75 °F
Forecast: N/A
Wind: 1 mph from Southwest

Location: Pirassununga Airport

Current Time: Feb 8, 2016 at 7:21:08 PM

Latest Report: Feb 8, 2016 at 6:00 PM


Visibility: N/A

Pressure: 30.01 "Hg (27.91 "Hg at 632m altitude)

Humidity: 89%

Dew point: 72 °F

Location of PirassunungaLocation

Historic Weather in Pirassununga — Graph

°F

Pirassununga Temperature Yesterday

Maximum temperature yesterday: 93 °F (at 4:00 PM)
Minimum temperature yesterday: 68 °F (at 7:00 AM)
Average temperature yesterday: 79 °F

High & Low Weather Summary for the Past Weeks

 TemperatureHumidityPressure
High97 °F (Feb 2, 4:00 PM)100% (Jan 24, 10:00 PM)30.12 "Hg (Jan 24, 10:00 PM)
Low64 °F (Feb 1, 6:00 AM)25% (Feb 2, 4:00 PM)29.83 "Hg (Jan 26, 5:00 PM)
Average81 °F68%30.01 "Hg
* Reported Jan 24 6:00 PM — Feb 8 6:00 PM, Pirassununga, Weather by CustomWeather, © 2016

Note: Actual official high and low records may vary slightly from our data, if they occured in-between our weather recording intervals... More about our weather records

Advertising

Pirassununga Weather History for the Previous 24 Hours

 ConditionsComfort  
Time TempWeatherWind HumidityBarometerVisibility
6:00 PM
Mon, Feb 8
75 °FScattered clouds.1 mph89%30.01 "HgN/A
5:00 PM73 °FThunderstorms. Fog.7 mph89%30.04 "Hg3 mi
4:00 PM84 °FPartly sunny.10 mph62%30.01 "HgN/A
3:00 PM90 °FPartly sunny.10 mph46%30.04 "HgN/A
2:00 PM88 °FPartly sunny.12 mph52%30.07 "HgN/A
12:00 PM86 °FPassing clouds.7 mph59%30.09 "HgN/A
11:00 AM81 °FPassing clouds.No wind70%30.09 "HgN/A
10:00 AM77 °FScattered clouds.3 mph79%30.09 "HgN/A
9:00 AM72 °FPartly sunny.2 mph100%30.09 "Hg4 mi
8:00 AM70 °FFog.2 mph100%30.07 "Hg0 mi
7:00 AM68 °FFog.5 mph100%30.04 "Hg0 mi
6:00 AM70 °FClear.2 mph100%30.04 "Hg5 mi
11:00 PM
Sun, Feb 7
72 °FPartly cloudy.2 mph94%30.12 "HgN/A
9:00 PM73 °FLight rain. Partly cloudy.5 mph89%30.07 "HgN/A
8:00 PM73 °FPassing clouds.6 mph89%30.01 "HgN/A
7:00 PM73 °FLight rain. Broken clouds.8 mph94%30.01 "HgN/A
Weather by CustomWeather, © 2016

See weather overviewHow to use our weather pages